Regional Weather Roundup
Issued by NWS

Home | Current Version | Previous Version | Text Only | Print | Product List | Glossary Off
Versions: 1 2 3 4 5 6 7 8 9 10 11 12 13 14 15 16 17 18 19 20 21 22 23 24 25 26 27

000
ASUS45 KCYS 200510
RWRWY

WYOMING REGIONAL WEATHER ROUNDUP
NATIONAL WEATHER SERVICE CHEYENNE WY
1100 PM MDT SAT APR 19 2014

NOTE:  "FAIR" INDICATES FEW OR NO CLOUDS BELOW 12,000 FEET
WITH NO SIGNIFICANT WEATHER AND/OR OBSTRUCTIONS TO VISIBILITY.

WYZ001-200600-
YELLOWSTONE NATIONAL PARK

CITY           SKY/WX    TMP DP  RH WIND       PRES   REMARKS
LK YELLOWSTONE   N/A     27  22  81 CALM      30.09F
W YELLOWSTONE  NOT AVBL

$$
WYZ002>013-054>058-071-098>099-200600-
NORTHERN WYOMING

CITY           SKY/WX    TMP DP  RH WIND       PRES   REMARKS
JACKSON        CLEAR     43  25  49 CALM      30.05S
CODY           PTCLDY    48  23  37 S8        29.94S
GREYBULL       MOCLDY    51  27  39 SE5       29.91S
WORLAND        PTCLDY    45  31  58 S10       29.92S
SHERIDAN         N/A     43  34  70 SW8         N/A
BUFFALO        CLEAR     45  29  53 W8        29.95F
GILLETTE       CLEAR     47  34  60 S12       29.96S
HULETT         FAIR      48  32  53 S3        29.97
NEWCASTLE      FAIR      54  28  37 E16       29.99

$$
WYZ014>020-022>026-101>103-200600-
CENTRAL WYOMING

CITY           SKY/WX    TMP DP  RH WIND       PRES   REMARKS
BIG PINEY      CLEAR     37  21  52 NW7       30.10S WCI  32
PINEDALE       CLEAR     32  28  86 NW6       30.11S WCI  26
DUBOIS         FAIR      37  21  52 NW16      30.05F WCI  28
LANDER         CLEAR     50  23  34 VRB3      29.98S
RIVERTON       CLEAR     50  16  25 NW15      29.98S
CASPER         PTCLDY    39  34  82 CALM      29.97F
DOUGLAS        MOCLDY    49  40  71 CALM      29.97F

$$
WYZ021-027>030-104>119-200600-
SOUTHERN WYOMING

CITY           SKY/WX    TMP DP  RH WIND       PRES   REMARKS
EVANSTON       CLEAR     42  28  57 SW9       30.12S
KEMMERER       CLEAR     43  32  65 CALM      30.12S
FORT BRIDGER   FAIR      46  31  54 SW10      30.14S
ROCK SPRINGS   MOCLDY    52  31  44 SW10      30.10R
DIXON          FAIR      40  34  79 CALM      30.14R
RAWLINS        PTCLDY    48  34  58 SW12      30.08S
SARATOGA       FAIR      41  32  70 SE9       30.11S
LARAMIE        PTCLDY    42  37  82 S14       30.10F
CHEYENNE       PTCLDY    48  40  73 SW12      30.08F
TORRINGTON     PTCLDY    55  39  54 SE9       29.99F
PINE BLUFFS    FAIR      45  36  70 E3        30.07F

$$



USA.gov is the U.S. government's official web portal to all federal, state and local government web resources and services.